This is the latest recevied weather packets stored in our database for station/object KE5KUL-13. If no packets are shown the sender has not sent any weather packets the latest 1 day(s).
| Time | Temp. | Humidity | Pressure | Rain* | Wind** | Luminosity | Snow |
|---|---|---|---|---|---|---|---|
| 1777974017 | 18.89° C | 29% | 1008 hPa | 0 mm | 3.13 m/s, 315° | - | - |
| 1777973417 | 18.89° C | 26% | 1007.6 hPa | 0 mm | 2.24 m/s, 338° | - | - |
| 1777972817 | 18.89° C | 27% | 1007.4 hPa | 0 mm | 1.79 m/s, 315° | - | - |
| 1777972217 | 18.89° C | 29% | 1007.4 hPa | 0 mm | 1.79 m/s, 315° | - | - |
| 1777971617 | 18.89° C | 28% | 1007.1 hPa | 0 mm | 0.89 m/s, 293° | - | - |
| 1777971017 | 19.44° C | 28% | 1006.8 hPa | 0 mm | 0.89 m/s, 225° | - | - |
| 1777970417 | 20° C | 28% | 1006.8 hPa | 0 mm | 1.34 m/s, 248° | - | - |
| 1777969817 | 20° C | 27% | 1006.6 hPa | 0 mm | 1.79 m/s, 225° | - | - |
| 1777969219 | 20° C | 28% | 1006.5 hPa | 0 mm | 1.79 m/s, 248° | - | - |
| 1777968617 | 20° C | 28% | 1006.7 hPa | 0 mm | 1.34 m/s, 248° | - | - |
| 1777968017 | 20° C | 28% | 1006.8 hPa | 0 mm | 1.34 m/s, 248° | - | - |
| 1777967417 | 20° C | 28% | 1007 hPa | 0 mm | 1.34 m/s, 225° | - | - |
| 1777966819 | 20° C | 27% | 1007 hPa | 0 mm | 1.34 m/s, 225° | - | - |
| 1777966217 | 20.56° C | 27% | 1007.3 hPa | 0 mm | 1.34 m/s, 248° | - | - |
| 1777965617 | 20.56° C | 26% | 1007.2 hPa | 0 mm | 1.34 m/s, 225° | - | - |
| 1777965017 | 21.11° C | 26% | 1007.5 hPa | 0 mm | 2.24 m/s, 270° | - | - |
| 1777964419 | 21.11° C | 26% | 1007.5 hPa | 0 mm | 2.68 m/s, 248° | - | - |
| 1777963819 | 21.11° C | 26% | 1007.4 hPa | 0 mm | 2.24 m/s, 270° | - | - |
| 1777963217 | 21.11° C | 26% | 1007.4 hPa | 0 mm | 2.24 m/s, 248° | - | - |
| 1777962617 | 21.11° C | 26% | 1007.6 hPa | 0 mm | 1.79 m/s, 225° | - | - |
| 1777962019 | 21.11° C | 25% | 1007.7 hPa | 0 mm | 2.24 m/s, 248° | - | - |
| 1777961419 | 21.67° C | 25% | 1007.7 hPa | 0 mm | 2.68 m/s, 248° | - | - |
* Rain latest hour (hover to see other rain measurements)
** Current wind speed in m/s (hover to see current wind gust speed)